TimeEST,TemperatureF,Dew PointF,Humidity,Sea Level PressureIn,VisibilityMPH,Wind Direction,Wind SpeedMPH,Gust SpeedMPH,PrecipitationIn,Events,Conditions,WindDirDegrees,DateUTC
12:15 AM,37.4,37.4,100,30.06,0.5,Calm,Calm,-,N/A,Fog,Fog,0,2013-02-06 05:15:00
12:35 AM,35.6,35.6,100,30.06,0.2,Calm,Calm,-,N/A,Fog,Fog,0,2013-02-06 05:35:00
12:55 AM,35.6,35.6,100,30.06,0.2,Calm,Calm,-,N/A,Fog,Fog,0,2013-02-06 05:55:00
1:15 AM,35.6,35.6,100,30.06,0.2,Calm,Calm,-,N/A,Fog,Fog,0,2013-02-06 06:15:00
1:35 AM,35.6,35.6,100,30.06,0.2,Calm,Calm,-,N/A,Fog,Fog,0,2013-02-06 06:35:00
2:15 AM,35.6,35.6,100,30.07,0.2,Calm,Calm,-,N/A,Fog,Fog,0,2013-02-06 07:15:00
2:35 AM,35.6,35.6,100,30.08,0.2,Calm,Calm,-,N/A,Fog,Fog,0,2013-02-06 07:35:00
2:55 AM,33.8,33.8,100,30.08,0.2,Calm,Calm,-,N/A,Fog,Fog,0,2013-02-06 07:55:00
3:15 AM,33.8,33.8,100,30.08,0.2,Calm,Calm,-,N/A,Fog,Fog,0,2013-02-06 08:15:00
3:35 AM,33.8,33.8,100,30.08,0.2,Calm,Calm,-,N/A,Fog,Fog,0,2013-02-06 08:35:00
3:55 AM,33.8,33.8,100,30.08,0.2,Calm,Calm,-,N/A,Fog,Fog,0,2013-02-06 08:55:00
4:15 AM,33.8,33.8,100,30.09,0.2,Calm,Calm,-,N/A,Fog,Fog,0,2013-02-06 09:15:00
4:35 AM,33.8,33.8,100,30.10,0.2,Calm,Calm,-,N/A,Fog,Fog,0,2013-02-06 09:35:00
4:55 AM,35.6,35.6,100,30.10,0.2,Calm,Calm,-,N/A,Fog,Fog,0,2013-02-06 09:55:00
5:15 AM,35.6,35.6,100,30.10,0.2,Calm,Calm,-,N/A,Fog,Fog,0,2013-02-06 10:15:00
5:35 AM,35.6,35.6,100,30.11,0.2,Calm,Calm,-,N/A,Fog,Fog,0,2013-02-06 10:35:00
5:55 AM,33.8,33.8,100,30.12,0.5,Calm,Calm,-,N/A,Fog,Fog,0,2013-02-06 10:55:00
6:15 AM,33.8,33.8,100,30.13,0.5,Calm,Calm,-,N/A,Fog,Fog,0,2013-02-06 11:15:00
6:35 AM,35.6,35.6,100,30.14,0.2,Calm,Calm,-,N/A,Fog,Fog,0,2013-02-06 11:35:00
6:55 AM,35.6,35.6,100,30.15,0.2,Calm,Calm,-,N/A,Fog,Fog,0,2013-02-06 11:55:00
7:15 AM,35.6,35.6,100,30.15,0.2,Calm,Calm,-,N/A,Fog,Fog,0,2013-02-06 12:15:00
7:35 AM,35.6,35.6,100,30.16,0.2,Calm,Calm,-,N/A,Fog,Fog,0,2013-02-06 12:35:00
7:55 AM,33.8,33.8,100,30.17,0.2,Calm,Calm,-,N/A,Fog,Fog,0,2013-02-06 12:55:00
8:15 AM,35.6,35.6,100,30.17,0.2,Calm,Calm,-,N/A,Fog,Fog,0,2013-02-06 13:15:00
8:35 AM,33.8,33.8,100,30.18,0.2,Calm,Calm,-,N/A,Fog,Fog,0,2013-02-06 13:35:00
8:55 AM,35.6,35.6,100,30.18,0.2,Calm,Calm,-,N/A,Fog,Fog,0,2013-02-06 13:55:00
9:15 AM,35.6,35.6,100,30.19,0.2,Calm,Calm,-,N/A,Fog,Fog,0,2013-02-06 14:15:00
9:35 AM,35.6,35.6,100,30.20,0.2,Calm,Calm,-,N/A,Fog,Fog,0,2013-02-06 14:35:00
9:55 AM,37.4,37.4,100,30.20,0.2,Calm,Calm,-,N/A,Fog,Fog,0,2013-02-06 14:55:00
10:15 AM,37.4,37.4,100,30.21,0.2,Calm,Calm,-,N/A,Fog,Fog,0,2013-02-06 15:15:00
10:35 AM,39.2,39.2,100,30.21,0.2,Calm,Calm,-,N/A,Fog,Fog,0,2013-02-06 15:35:00
10:55 AM,41.0,41.0,100,30.21,4.0,Calm,Calm,-,N/A,,Overcast,0,2013-02-06 15:55:00
11:15 AM,42.8,42.8,100,30.21,7.0,Calm,Calm,-,N/A,,Scattered Clouds,0,2013-02-06 16:15:00
11:35 AM,42.8,42.8,100,30.21,10.0,Calm,Calm,-,N/A,,Clear,0,2013-02-06 16:35:00
11:55 AM,46.4,46.4,100,30.20,10.0,Calm,Calm,-,N/A,,Clear,0,2013-02-06 16:55:00
12:15 PM,50.0,50.0,100,30.20,10.0,Calm,Calm,-,N/A,,Clear,0,2013-02-06 17:15:00
12:35 PM,55.4,42.8,63,30.19,10.0,NW,4.6,-,N/A,,Clear,320,2013-02-06 17:35:00
12:55 PM,59.0,42.8,55,30.18,10.0,NW,3.5,-,N/A,,Clear,310,2013-02-06 17:55:00
1:15 PM,59.0,41.0,51,30.17,10.0,NW,5.8,-,N/A,,Clear,320,2013-02-06 18:15:00
1:35 PM,60.8,37.4,42,30.17,10.0,Calm,Calm,-,N/A,,Clear,0,2013-02-06 18:35:00
1:55 PM,60.8,37.4,42,30.16,10.0,NNE,3.5,-,N/A,,Clear,20,2013-02-06 18:55:00
2:15 PM,60.8,35.6,39,30.15,10.0,NW,8.1,-,N/A,,Clear,320,2013-02-06 19:15:00
2:35 PM,60.8,33.8,36,30.15,10.0,North,5.8,-,N/A,,Clear,350,2013-02-06 19:35:00
2:55 PM,62.6,35.6,37,30.15,10.0,NNE,6.9,-,N/A,,Clear,20,2013-02-06 19:55:00
3:15 PM,62.6,33.8,34,30.15,10.0,North,3.5,-,N/A,,Clear,350,2013-02-06 20:15:00
3:35 PM,62.6,33.8,34,30.14,10.0,Calm,Calm,-,N/A,,Clear,0,2013-02-06 20:35:00
3:55 PM,62.6,33.8,34,30.13,10.0,Calm,Calm,-,N/A,,Clear,0,2013-02-06 20:55:00
4:15 PM,62.6,33.8,34,30.14,10.0,NW,3.5,-,N/A,,Clear,310,2013-02-06 21:15:00
4:35 PM,62.6,33.8,34,30.12,10.0,Calm,Calm,-,N/A,,Clear,0,2013-02-06 21:35:00
4:55 PM,60.8,33.8,36,30.12,10.0,Calm,Calm,-,N/A,,Clear,0,2013-02-06 21:55:00
5:15 PM,60.8,33.8,36,30.12,10.0,Calm,Calm,-,N/A,,Clear,0,2013-02-06 22:15:00
5:35 PM,60.8,32.0,34,30.12,10.0,ENE,4.6,-,N/A,,Clear,60,2013-02-06 22:35:00
5:55 PM,57.2,32.0,38,30.12,10.0,Calm,Calm,-,N/A,,Clear,0,2013-02-06 22:55:00
6:15 PM,55.4,32.0,41,30.12,10.0,Calm,Calm,-,N/A,,Clear,0,2013-02-06 23:15:00
6:35 PM,53.6,35.6,51,30.12,10.0,Calm,Calm,-,N/A,,Clear,0,2013-02-06 23:35:00
6:55 PM,50.0,35.6,58,30.12,10.0,Calm,Calm,-,N/A,,Clear,0,2013-02-06 23:55:00
7:15 PM,48.2,33.8,58,30.11,10.0,Calm,Calm,-,N/A,,Clear,0,2013-02-07 00:15:00
7:35 PM,48.2,33.8,58,30.12,10.0,Calm,Calm,-,N/A,,Clear,0,2013-02-07 00:35:00
7:55 PM,46.4,33.8,62,30.15,10.0,Calm,Calm,-,N/A,,Clear,0,2013-02-07 00:55:00
8:15 PM,44.6,35.6,71,30.14,10.0,Calm,Calm,-,N/A,,Clear,0,2013-02-07 01:15:00
8:35 PM,44.6,33.8,66,30.14,10.0,Calm,Calm,-,N/A,,Clear,0,2013-02-07 01:35:00
8:55 PM,42.8,35.6,76,30.15,10.0,Calm,Calm,-,N/A,,Clear,0,2013-02-07 01:55:00
9:15 PM,42.8,35.6,76,30.15,10.0,Calm,Calm,-,N/A,,Clear,0,2013-02-07 02:15:00
9:35 PM,41.0,37.4,87,30.15,10.0,Calm,Calm,-,N/A,,Clear,0,2013-02-07 02:35:00
9:55 PM,41.0,37.4,87,30.15,10.0,Calm,Calm,-,N/A,,Clear,0,2013-02-07 02:55:00
10:15 PM,41.0,35.6,81,30.15,10.0,Calm,Calm,-,N/A,,Clear,0,2013-02-07 03:15:00
10:35 PM,41.0,37.4,87,30.14,10.0,Calm,Calm,-,N/A,,Clear,0,2013-02-07 03:35:00
10:55 PM,37.4,35.6,93,30.14,10.0,Calm,Calm,-,N/A,,Clear,0,2013-02-07 03:55:00
11:15 PM,37.4,35.6,93,30.13,10.0,Calm,Calm,-,N/A,,Clear,0,2013-02-07 04:15:00
11:35 PM,37.4,35.6,93,30.12,10.0,Calm,Calm,-,N/A,,Clear,0,2013-02-07 04:35:00
11:55 PM,37.4,35.6,93,30.13,10.0,Calm,Calm,-,N/A,,Clear,0,2013-02-07 04:55:00